Home   Weather   Oss   Past weeks

Flag for Netherlands Past Weather in Oss, Netherlands — Yesterday and Last 2 Weeks

46 °F


Feels Like: 46 °F
Forecast: 46 / 59 °F
Wind: 1 mph from Southeast

Location: Volkel

Current Time: Oct 26, 2016 at 2:30:10 AM

Latest Report: Oct 26, 2016 at 1:55 AM

Visibility: 2 mi

Pressure: 30.33 "Hg

Humidity: 100%

Dew Point: 46 °F

Location of OssLocation

Past Weather in Oss — Graph


Oss Temperature Yesterday

Maximum temperature yesterday: 50 °F (at 12:55 PM)
Minimum temperature yesterday: 46 °F (at 12:25 AM)
Average temperature yesterday: 48 °F

High & Low Weather Summary for the Past Weeks

High66 °F (Oct 16, 2:55 PM)100% (Oct 11, 6:25 AM)30.33 "Hg (Oct 11, 6:25 AM)
Low30 °F (Oct 23, 1:55 AM)58% (Oct 13, 3:55 PM)29.65 "Hg (Oct 15, 1:02 AM)
Average48 °F88%30.00 "Hg
* Reported Oct 11 12:25 AM — Oct 26 12:55 AM, Oss, Weather by CustomWeather, © 2016

Note: Actual official high and low records may vary slightly from our data, if they occured in-between our weather recording intervals... More about our weather records


Oss Weather History for the Previous 24 Hours

Scroll right to see more
Time TempWeatherWind HumidityBarometerVisibility
12:55 AM
Wed, Oct 26
48 °FFog.2 mph94%30.33 "Hg2 mi
12:25 AM48 °FFog.2 mph94%30.33 "Hg2 mi
11:55 PM
Tue, Oct 25
48 °FFog.1 mph94%30.33 "Hg2 mi
11:25 PM48 °FFog.1 mph94%30.33 "Hg2 mi
10:55 PM48 °FFog.2 mph94%30.33 "Hg2 mi
10:25 PM48 °FFog.2 mph94%30.33 "Hg2 mi
9:55 PM48 °FFog.2 mph94%30.33 "Hg3 mi
9:25 PM48 °FFog.2 mph94%30.30 "Hg2 mi
8:55 PM48 °FFog.3 mph94%30.30 "Hg3 mi
8:25 PM48 °FFog.2 mph94%30.30 "Hg4 mi
8:02 PM48 °FFog.3 mph94%30.30 "Hg4 mi
7:55 PM48 °FFog.3 mph94%30.30 "Hg5 mi
7:25 PM48 °FOvercast.2 mph94%30.27 "HgN/A
6:55 PM48 °FOvercast.1 mph94%30.27 "HgN/A
6:25 PM48 °FOvercast.2 mph87%30.27 "HgN/A
6:01 PM50 °FFog.1 mph82%30.27 "Hg6 mi
5:55 PM50 °FFog.1 mph82%30.27 "Hg5 mi
5:25 PM50 °FFog.2 mph88%30.27 "Hg6 mi
4:55 PM50 °FOvercast.No wind88%30.24 "HgN/A
4:25 PM50 °FMostly cloudy.2 mph88%30.24 "HgN/A
3:55 PM50 °FFog.1 mph88%30.24 "Hg6 mi
3:25 PM50 °FFog.2 mph88%30.24 "Hg6 mi
2:55 PM50 °FFog.2 mph88%30.24 "Hg6 mi
2:25 PM50 °FLow clouds.1 mph82%30.24 "HgN/A
1:55 PM50 °FMore clouds than sun.1 mph88%30.21 "HgN/A
1:25 PM50 °FMostly cloudy.1 mph88%30.21 "HgN/A
12:58 PM50 °FCloudy.2 mph82%30.21 "HgN/A
12:55 PM50 °FFog.1 mph88%30.21 "Hg6 mi
12:25 PM48 °FLow clouds.2 mph87%30.21 "HgN/A
11:55 AM48 °FFog.2 mph94%30.18 "Hg6 mi
11:25 AM48 °FFog.3 mph94%30.18 "Hg3 mi
10:55 AM46 °FFog.5 mph100%30.18 "Hg2 mi
10:25 AM46 °FFog.3 mph100%30.18 "Hg2 mi
9:55 AM46 °FFog.2 mph100%30.18 "Hg2 mi
9:25 AM46 °FFog.1 mph100%30.15 "Hg2 mi
8:57 AM46 °FFog.2 mph100%30.15 "Hg1 mi
8:25 AM46 °FFog.3 mph100%30.12 "Hg1 mi
7:55 AM46 °FFog.3 mph100%30.12 "Hg1 mi
7:25 AM46 °FFog.2 mph100%30.09 "Hg1 mi
6:55 AM46 °FFog.2 mph100%30.09 "Hg1 mi
6:25 AM46 °FFog.2 mph100%30.09 "Hg1 mi
5:55 AM46 °FFog.2 mph100%30.07 "Hg1 mi
5:25 AM46 °FFog.3 mph100%30.07 "Hg1 mi
4:55 AM46 °FFog.2 mph100%30.07 "Hg1 mi
4:25 AM46 °FFog.3 mph100%30.04 "Hg1 mi
4:00 AM46 °FFog.3 mph100%30.04 "Hg1 mi
3:55 AM46 °FFog.2 mph100%30.04 "Hg1 mi
3:25 AM46 °FFog.2 mph100%30.04 "Hg1 mi
2:55 AM46 °FFog.2 mph100%30.01 "Hg1 mi
2:25 AM46 °FFog.2 mph100%30.01 "Hg0 mi
Weather by CustomWeather, © 2016

See weather overviewHow to use our weather pages